Regional Weather Roundup
Issued by NWS

Home | Current Version | Previous Version | Graphics & Text | Print | Product List | Glossary On
Versions: 1 2 3 4 5 6 7 8 9 10 11 12 13 14 15 16 17 18 19 20 21 22 23 24 25 26 27 28 29 30 31 32 33 34 35 36 37 38 39 40 41 42 43 44 45 46 47 48 49 50
000
ASUS43 KFSD 252310
RWRSD

WEATHER ROUNDUP FOR SOUTH DAKOTA
NATIONAL WEATHER SERVICE SIOUX FALLS SD
600 PM CDT SAT APR 25 2015

NOTE: "FAIR" INDICATES FEW OR NO CLOUDS BELOW 12,000 FEET WITH NO
SIGNIFICANT WEATHER AND/OR OBSTRUCTIONS TO VISIBILITY.


SDZ001>005-009-010-012>017-260000-
NORTHWEST AND NORTH CENTRAL SOUTH DAKOTA

CITY           SKY/WX    TMP DP  RH WIND       PRES   REMARKS
BUFFALO          N/A     49  45  86 SE9       29.73R
FAITH            N/A     50  44  80 SE9       29.77R
MOBRIDGE       CLOUDY    54  45  71 SE8       29.79R
$$

SDZ012>016-024>037-041>051-057-063-072>074-260000-
SOUTHWEST AND SOUTH CENTRAL SOUTH DAKOTA

CITY           SKY/WX    TMP DP  RH WIND       PRES   REMARKS
RAPID CTY ARPT CLOUDY    51  47  86 S6        29.73S
PIERRE         CLOUDY    59  47  64 SE16      29.77R
CUSTER         CLOUDY    50  41  71 NE5       29.73F
ELLSWORTH AFB  CLOUDY    51  48  88 S7        29.74R
PHILIP         CLOUDY    58  49  72 SE13G22   29.73F
PINE RIDGE     PTSUNNY   63  45  51 E13       29.69R
SPEARFISH      PTSUNNY   48  48 100 NW6       29.77S FOG
WINNER         CLOUDY    60  45  57 SE14      29.78R
$$

SDZ004>011-016>023-039-040-260000-
NORTHEAST SOUTH DAKOTA

CITY           SKY/WX    TMP DP  RH WIND       PRES   REMARKS
ABERDEEN       CLOUDY    53  42  66 E13       29.86R
WATERTOWN      CLOUDY    54  42  64 E12       29.85R
BROOKINGS      CLOUDY    55  41  58 E13       29.84R
SISSETON         N/A     54  43  66 SE8       29.87S
$$

SDZ017-020-022-023-036>040-048>070-260000-
SOUTHEAST SOUTH DAKOTA

CITY           SKY/WX    TMP DP  RH WIND       PRES   REMARKS
SIOUX FALLS    PTSUNNY   59  41  51 E16       29.81R
HURON          CLOUDY    61  44  53 SE9       29.81R
CHAMBERLAIN    PTSUNNY   58  46  64 E9G16     29.80R
MITCHELL       PTSUNNY   61  46  57 E13       29.81R
YANKTON        PTSUNNY   61  41  48 E12       29.78R
$$

ABBREVIATIONS USED IN REMARKS
   TC - TEMPERATURE IN CELSIUS
  WCI - WIND CHILL INDEX
   HX - HEAT INDEX
  VSB - VISIBILITY




USA.gov is the U.S. government's official web portal to all federal, state and local government web resources and services.